This is the latest recevied weather packets stored in our database for station/object NO9B. If no packets are shown the sender has not sent any weather packets the latest 10 day(s).
| Time | Temp. | Humidity | Pressure | Rain* | Wind** | Luminosity | Snow |
|---|---|---|---|---|---|---|---|
| 1788622272 | 25° C | 86% | 1017.6 hPa | 0 mm | - | 68 W/m² | - |
| 1788621967 | 25° C | 87% | 1017.5 hPa | 0 mm | - | 149 W/m² | - |
| 1788621662 | 25° C | 86% | 1017.5 hPa | 0 mm | - | 116 W/m² | - |
| 1788621357 | 25° C | 86% | 1017.5 hPa | 0 mm | - | 101 W/m² | - |
| 1788621053 | 25° C | 87% | 1017.3 hPa | 0 mm | - | 91 W/m² | - |
| 1788620748 | 24.44° C | 88% | 1017.3 hPa | 0 mm | - | 72 W/m² | - |
| 1788620446 | 24.44° C | 88% | 1017.3 hPa | 0 mm | - | 75 W/m² | - |
| 1788620144 | 24.44° C | 89% | 1017.3 hPa | 0 mm | - | 102 W/m² | - |
| 1788619844 | 24.44° C | 89% | 1017.1 hPa | 0 mm | - | 78 W/m² | - |
| 1788619539 | 24.44° C | 89% | 1017.1 hPa | 0 mm | - | 52 W/m² | - |
| 1788619238 | 23.89° C | 89% | 1017.1 hPa | 0 mm | - | 90 W/m² | - |
| 1788618938 | 23.89° C | 89% | 1016.8 hPa | 0 mm | - | 81 W/m² | - |
| 1788618632 | 23.89° C | 91% | 1016.8 hPa | 0 mm | - | 71 W/m² | - |
| 1788618332 | 23.89° C | 92% | 1016.9 hPa | 0 mm | - | 78 W/m² | - |
| 1788618027 | 23.89° C | 92% | 1016.7 hPa | 0 mm | - | 88 W/m² | - |
| 1788617727 | 23.33° C | 92% | 1016.7 hPa | 0 mm | - | 45 W/m² | - |
| 1788617424 | 23.33° C | 92% | 1016.9 hPa | 0 mm | - | 32 W/m² | - |
| 1788617124 | 23.33° C | 92% | 1016.8 hPa | 0 mm | - | 33 W/m² | - |
| 1788616823 | 23.33° C | 92% | 1016.8 hPa | 0 mm | - | 30 W/m² | - |
| 1788616519 | 23.33° C | 93% | 1016.7 hPa | 0 mm | - | 44 W/m² | - |
| 1788616213 | 23.33° C | 93% | 1016.6 hPa | 0 mm | - | 34 W/m² | - |
| 1788615908 | 23.33° C | 93% | 1016.7 hPa | 0 mm | - | 53 W/m² | - |
| 1788615607 | 23.33° C | 93% | 1016.8 hPa | 0 mm | - | 45 W/m² | - |
| 1788615302 | 23.33° C | 93% | 1016.8 hPa | 0 mm | - | 36 W/m² | - |
| 1788615001 | 23.33° C | 94% | 1016.9 hPa | 0 mm | - | 45 W/m² | - |
* Rain latest hour (hover to see other rain measurements)
** Current wind speed in m/s (hover to see current wind gust speed)